Regional Weather Roundup
Issued by NWS

Home | Current Version | Previous Version | Graphics & Text | Print | Product List | Glossary On
Versions: 1 2 3 4 5 6 7 8 9 10 11 12 13 14 15 16 17 18 19 20 21 22 23 24 25 26 27 28 29 30 31 32 33 34 35 36 37 38 39 40 41 42 43 44 45 46 47 48 49 50
000
ASUS43 KTOP 300659
RWRKS

WEATHER ROUNDUP FOR KANSAS
NATIONAL WEATHER SERVICE GOODLAND KS
200 AM CDT SAT APR 30 2016

NOTE:  "FAIR" INDICATES FEW OR NO CLOUDS BELOW 12,000 FEET WITH NO
SIGNIFICANT WEATHER AND/OR OBSTRUCTIONS TO VISIBILITY.

KSZ001>006-013>018-027>032-041>047-300800-
NORTHWEST KANSAS

CITY           SKY/WX    TMP DP  RH WIND       PRES   REMARKS
GOODLAND       CLOUDY    32  31  96 NW14      29.82F FOG     WCI  22
HAYS           CLOUDY    45  36  70 N14       29.74F
HILL CITY      CLOUDY    42  40  92 N13       29.78F
RUSSELL        CLOUDY    45  44  97 NW12      29.72F
$$

KSZ061>065-074>080-084>089-300800-
SOUTHWEST KANSAS

CITY           SKY/WX    TMP DP  RH WIND       PRES   REMARKS
DODGE CITY     CLOUDY    38  37  97 NW14      29.78S FOG     WCI  30
ELKHART          N/A     38  33  82 NW9         N/A
GARDEN CITY    CLOUDY    37  36  96 NW10      29.80S WCI  30
GREAT BEND     CLOUDY    46  39  76 N13       29.73F
LIBERAL        MOCLDY    39  36  87 NW15      29.82S WCI  31
$$

KSZ066>073-081>083-090>101-300800-
SOUTHEAST KANSAS

CITY           SKY/WX    TMP DP  RH WIND       PRES   REMARKS
CHANUTE        CLOUDY    61  58  90 SE12      29.65S
COFFEYVILLE    CLOUDY    62  60  93 SE6       29.64F
HUTCHINSON     CLOUDY    50  49  96 N10       29.69F FOG
MEDICINE LODGE   N/A     48  47  96 NW9       29.72S
NEWTON         CLOUDY    52  46  82 W7        29.69S
PARSONS        CLOUDY    62  61  96 SE5       29.65F
WICHITA INTL   CLOUDY    54  52  93 NW13      29.67S FOG
WICHITA JABRA  CLOUDY    54  54 100 W12       29.66S FOG
WICHITA MCCONL CLOUDY    54  54 100 NW8       29.66F FOG
WINFIELD       CLOUDY    57  56  96 W7        29.65F FOG
$$

KSZ007>012-019>026-033>040-048>060-102>105-300800-
NORTHEAST KANSAS

CITY           SKY/WX    TMP DP  RH WIND       PRES   REMARKS
CONCORDIA      LGT RAIN  47  46  97 N7        29.73F FOG
EMPORIA        LGT RAIN  57  56  96 SE8       29.64S
LAWRENCE       CLOUDY    53  53 100 E13G22    29.70F FOG
MANHATTAN      LGT RAIN  52  49  89 NE9       29.67F FOG
OLATHE IND     CLOUDY    57  55  93 E9        29.71F
OLATHE EXE     CLOUDY    56  54  93 E8        29.70F
SALINA         CLOUDY    51  50  96 N9        29.70F FOG
TOPEKA BILLARD LGT RAIN  53  52  96 E14       29.68F FOG
TOPEKA FORBES  LGT RAIN  56  53  90 E14       29.66F FOG
$$




USA.gov is the U.S. government's official web portal to all federal, state and local government web resources and services.